[[{"header":{"parameterUnit":"m.s-1","parameterCategory":1,"la1":30.2991,"la2":30.254,"lo1":-89.0895,"lo2":-89.0444,"dy":0.0017,"dx":0.0017,"nx":28,"ny":28,"refTime":"2023-08-10T21:00:00:Z","depth":0,"parameterNumber":2,"parameterNumberName":"U-component_of_WINDS"},"data":[0,0,0,0,0,0,0,0,0,0,0,0,0,0,0,0,0,0,0,0,0,0,0,0,0,0,0,0,0,0,0,0,0,0,0,0,0,0,0,0,0,0,0,0,0,0,0,0,0,0,0,0,0,0,0,0,0,0,1.8832,1.8833,0,1.8894,1.8895,1.8896,1.893,1.893,1.8931,1.8931,1.8995,1.8997,1.8998,0,0,0,0,0,0,0,0,0,0,0,0,0,1.8748,1.875,1.8832,1.8833,1.8834,1.8894,1.8895,1.8896,1.893,1.893,1.8931,1.8931,1.8995,1.8996,1.8998,0,0,0,0,0,0,0,0,0,0,0,0,0,1.8795,1.875,1.8832,1.8858,1.8861,1.8894,1.8895,1.8896,1.893,1.893,1.8931,1.8931,1.8994,1.8996,1.8999,1.901,0,0,1.9006,1.9007,0,0,0,0,0,0,0,0,1.8792,1.8798,1.8854,1.8857,1.886,1.8905,1.8889,1.8934,1.893,1.8904,1.8931,1.8931,1.8965,1.897,1.8981,1.9013,1.9016,1.9006,1.9008,1.9009,1.9009,0,0,0,0,0,0,0,1.8789,1.8795,1.8857,1.8855,1.8858,1.8868,1.8875,1.8898,1.8933,1.8906,1.8909,1.8916,1.8967,1.8979,1.8983,1.9017,1.9006,1.9008,1.901,1.9011,1.9066,1.9066,0,0,0,0,0,0,1.8781,1.8793,1.8855,1.8859,1.8826,1.887,1.8877,1.889,1.8933,1.8939,1.8916,1.8917,1.8974,1.898,1.8985,1.9004,1.9009,1.9011,1.9012,1.9066,1.9066,1.9066,0,0,0,0,0,0,1.8779,1.8786,1.8852,1.8826,1.8836,1.8871,1.8885,1.8891,1.8903,1.894,1.8946,1.8921,1.8975,1.8982,1.9005,1.9006,1.9012,1.9014,1.9066,1.9066,1.9066,1.9039,0,0,0,0,0,0,1.8777,1.8785,1.8789,1.8826,1.8837,1.8869,1.8885,1.8892,1.8907,1.891,1.8947,1.8953,1.8975,1.9001,1.9007,1.901,1.9016,1.9066,1.9066,1.9066,1.904,1.9038,1.9037,0,0,0,0,0,1.8773,1.8778,1.8789,1.8796,1.8842,1.8869,1.8875,1.8901,1.8907,1.8912,1.8936,1.8952,1.9006,1.9003,1.901,1.9014,1.9066,1.9066,1.9066,1.9041,1.9039,1.9037,0,0,0,0,0,0,1.8739,1.8783,1.8795,1.8812,1.8837,1.8875,1.8881,1.8897,1.8921,1.8922,1.8954,1.8962,1.8982,1.9,1.8997,1.9029,1.9038,1.9039,1.9016,1.9014,1.9013,1.9007,1.9018,0,0,0,0,0,1.8734,1.8751,1.8789,1.8801,1.8812,1.8845,1.8858,1.8876,1.8902,1.8913,1.8939,1.8965,1.8988,1.9002,1.9026,1.9044,1.9054,1.905,1.9049,1.9047,1.9048,1.9062,1.9062,1.9067,1.9067,1.9067,0,0,1.8722,1.8748,1.8757,1.8794,1.8815,1.8835,1.8853,1.8872,1.8887,1.8916,1.8939,1.896,1.8991,1.9013,1.9023,1.9028,1.9049,1.9047,1.9046,1.9047,1.9062,1.9062,1.9061,1.9067,1.9067,1.9067,0,0,1.871,1.8732,1.8744,1.8766,1.8798,1.8821,1.8824,1.8861,1.8876,1.89,1.8923,1.8943,1.8981,1.9004,1.902,1.9023,1.9039,1.903,1.902,1.9034,1.9034,1.9034,1.9036,1.9036,1.903,1.903,1.903,0,1.8692,1.872,1.8749,1.8767,1.8784,1.8813,1.8828,1.8847,1.8886,1.8897,1.8903,1.8955,1.8978,1.9006,1.9007,1.9019,1.9026,1.9024,1.9031,1.9032,1.9032,1.9035,1.9035,1.9029,1.9029,1.9029,1.903,0,1.8697,1.8717,1.8724,1.8761,1.8779,1.8795,1.8828,1.8843,1.8861,1.8884,1.891,1.894,1.8971,1.8979,1.8996,1.9011,1.9014,1.9025,1.9034,1.903,1.9033,1.9034,1.9027,1.9028,1.9028,1.9028,0,0,1.8662,1.8718,1.872,1.8738,1.8778,1.8795,1.8815,1.8846,1.8859,1.8886,1.8904,1.8938,1.895,1.8969,1.899,1.9002,1.9005,1.9012,1.9013,1.901,1.9026,1.9017,1.9018,1.9017,1.9017,1.9017,1.9024,0,1.8656,1.8691,1.8719,1.8744,1.8765,1.8795,1.8813,1.884,1.8863,1.8885,1.8911,1.8935,1.8948,1.896,1.8974,1.9001,1.9008,1.9001,1.9035,1.9036,1.9025,1.9019,1.9009,1.9013,1.9025,1.9025,1.9026,0,1.8653,1.868,1.8707,1.8748,1.8758,1.8773,1.8806,1.8826,1.886,1.8876,1.8899,1.8922,1.8946,1.8955,1.899,1.8985,1.9001,1.9018,1.9019,1.9022,1.9029,1.9023,1.9015,1.9016,1.9028,1.9027,1.9027,0,1.8626,1.8669,1.8691,1.8706,1.8755,1.8765,1.8786,1.882,1.8838,1.8868,1.8881,1.8912,1.893,1.8955,1.8987,1.899,1.902,1.903,1.9036,1.9035,1.9039,1.9038,1.9034,1.905,1.905,1.905,1.905,0,1.8616,1.8631,1.868,1.8693,1.8713,1.8748,1.8767,1.8791,1.8822,1.8842,1.8871,1.889,1.8931,1.8956,1.8981,1.9008,1.9016,1.9031,1.9037,1.9028,1.9026,1.9038,1.9038,1.905,1.905,1.905,1.905,0,1.8587,1.862,1.8647,1.8692,1.8704,1.8717,1.8757,1.8772,1.8799,1.8825,1.8833,1.8875,1.8906,1.8941,1.8983,1.9001,1.9026,1.9036,1.9014,1.9018,1.9021,1.9021,1.9024,1.9027,1.9041,1.9041,1.9041,0,1.8578,1.8591,1.8638,1.8654,1.8675,1.87,1.8719,1.8756,1.8775,1.8817,1.8829,1.8862,1.8891,1.894,1.8975,1.9009,1.9019,1.9019,1.9024,1.9016,1.902,1.9019,1.9021,1.9016,1.9016,1.9015,1.9015,0,1.8558,1.8575,1.8601,1.8635,1.8658,1.8686,1.8715,1.8727,1.877,1.8791,1.8823,1.8846,1.8891,1.8925,1.8964,1.8988,1.9009,1.9014,1.9017,1.9007,1.8994,1.9002,1.9009,1.9013,1.9013,1.9013,1.9013,1.9013,1.8539,1.8553,1.859,1.862,1.8646,1.8674,1.8692,1.8722,1.875,1.8789,1.881,1.8843,1.8881,1.8936,1.896,1.8988,1.8994,1.8998,1.8999,1.9,1.8998,1.8991,1.8995,1.8995,1.8995,1.8996,1.8996,0,1.8522,1.8548,1.8575,1.8616,1.8641,1.866,1.8695,1.8714,1.8743,1.8776,1.8805,1.8845,1.8879,1.8919,1.8956,1.8971,1.8982,1.898,1.8978,1.8984,1.8989,1.8983,1.897,1.897,1.897,1.897,1.897,1.897,1.8515,1.8541,1.8563,1.8604,1.8631,1.8663,1.8681,1.8709,1.8736,1.8779,1.8808,1.8834,1.8871,1.8912,1.8946,1.8957,1.897,1.8964,1.8978,1.8981,1.8983,1.8985,1.898,1.8967,1.8967,1.8971,1.8971,1.8971]},{"header":{"parameterUnit":"m.s-1","parameterCategory":1,"la1":30.2991,"la2":30.254,"lo1":-89.0895,"lo2":-89.0444,"dy":0.0017,"dx":0.0017,"nx":28,"ny":28,"refTime":"2023-08-10T21:00:00:Z","depth":0,"parameterNumber":3,"parameterNumberName":"V-component_of_WINDS"},"data":[0,0,0,0,0,0,0,0,0,0,0,0,0,0,0,0,0,0,0,0,0,0,0,0,0,0,0,0,0,0,0,0,0,0,0,0,0,0,0,0,0,0,0,0,0,0,0,0,0,0,0,0,0,0,0,0,0,0,4.3928,4.393,0,4.4059,4.4061,4.4062,4.4102,4.4101,4.41,4.41,4.4224,4.4228,4.4232,0,0,0,0,0,0,0,0,0,0,0,0,0,4.3702,4.3706,4.3928,4.393,4.3932,4.4059,4.4061,4.4063,4.4102,4.4101,4.41,4.41,4.4223,4.4228,4.4232,0,0,0,0,0,0,0,0,0,0,0,0,0,4.3813,4.3707,4.3928,4.3967,4.3972,4.4059,4.4061,4.4063,4.4102,4.4101,4.41,4.4099,4.4222,4.4227,4.4233,4.4288,0,0,4.4251,4.4253,0,0,0,0,0,0,0,0,4.3806,4.3821,4.3959,4.3964,4.397,4.4063,4.4027,4.4138,4.4102,4.4052,4.41,4.4099,4.4171,4.4181,4.4207,4.4294,4.4299,4.4251,4.4255,4.4258,4.4259,0,0,0,0,0,0,0,4.3799,4.3815,4.398,4.3961,4.3968,4.3974,4.3989,4.4048,4.4115,4.4056,4.406,4.4075,4.4173,4.4202,4.421,4.4301,4.4251,4.4257,4.426,4.4262,4.4436,4.4438,0,0,0,0,0,0,4.3786,4.3809,4.3976,4.3984,4.3884,4.3979,4.3995,4.4034,4.4115,4.4126,4.4076,4.4076,4.4192,4.4204,4.4215,4.4283,4.4257,4.4263,4.4266,4.4435,4.4437,4.4438,0,0,0,0,0,0,4.3781,4.38,4.397,4.3897,4.392,4.3984,4.4027,4.4037,4.4065,4.4129,4.414,4.4093,4.4192,4.4207,4.427,4.4288,4.4266,4.4271,4.4434,4.4436,4.4437,4.4421,0,0,0,0,0,0,4.3774,4.3798,4.3823,4.3898,4.3923,4.4026,4.4028,4.404,4.4077,4.4079,4.4148,4.4159,4.4192,4.4261,4.4276,4.4296,4.4276,4.4433,4.4435,4.4437,4.442,4.4422,4.4423,0,0,0,0,0,4.3766,4.3811,4.3824,4.3844,4.3956,4.4027,4.4041,4.4082,4.4078,4.4101,4.4141,4.4156,4.4284,4.4267,4.4284,4.4306,4.4432,4.4434,4.4437,4.4419,4.4422,4.4423,0,0,0,0,0,0,4.3734,4.3822,4.3837,4.3908,4.396,4.4034,4.4064,4.4083,4.4135,4.4134,4.4179,4.4194,4.4253,4.4286,4.4266,4.4362,4.4358,4.4364,4.4339,4.4342,4.4343,4.4333,4.428,0,0,0,0,0,4.3735,4.379,4.3862,4.3918,4.3944,4.4,4.4032,4.4059,4.4113,4.4134,4.418,4.4229,4.428,4.4313,4.4363,4.4425,4.4439,4.4448,4.445,4.4451,4.4455,4.4488,4.4492,4.4446,4.4446,4.4446,0,0,4.3738,4.3793,4.3824,4.3913,4.3957,4.4008,4.4018,4.4072,4.411,4.4142,4.4205,4.4239,4.4297,4.4359,4.4389,4.4388,4.4471,4.4454,4.4455,4.4458,4.4491,4.4495,4.4499,4.4448,4.4448,4.4447,0,0,4.3771,4.3819,4.387,4.3914,4.398,4.4017,4.4029,4.41,4.4125,4.4189,4.4213,4.4257,4.4344,4.4384,4.4416,4.4461,4.4475,4.4475,4.4483,4.4515,4.4518,4.4522,4.4536,4.454,4.448,4.448,4.448,0,4.3765,4.3848,4.3893,4.3947,4.3984,4.4018,4.4067,4.4106,4.4184,4.4207,4.4206,4.4316,4.4357,4.4428,4.4439,4.4464,4.4477,4.4468,4.4515,4.4519,4.4522,4.4536,4.4541,4.4479,4.4479,4.4479,4.4479,0,4.3836,4.3893,4.3925,4.4003,4.4044,4.4095,4.4144,4.4179,4.4202,4.4237,4.43,4.4351,4.4411,4.443,4.4452,4.4503,4.4501,4.4507,4.4503,4.4525,4.4539,4.4545,4.4478,4.4479,4.4479,4.4479,0,0,4.3852,4.3954,4.3965,4.4,4.4075,4.4118,4.4169,4.4231,4.4259,4.4311,4.4353,4.4425,4.4431,4.4467,4.4493,4.452,4.455,4.4523,4.4524,4.4524,4.4607,4.4601,4.4607,4.456,4.4562,4.4563,4.4602,0,4.3892,4.3989,4.4031,4.4107,4.4157,4.4189,4.4233,4.4282,4.4316,4.4361,4.4397,4.4447,4.4452,4.4474,4.4502,4.454,4.4567,4.4538,4.4596,4.4598,4.4581,4.4615,4.4609,4.4644,4.4607,4.4608,4.4609,0,4.3953,4.4008,4.409,4.4158,4.418,4.422,4.4279,4.4323,4.4377,4.4399,4.4439,4.4464,4.4514,4.4508,4.4577,4.4556,4.4582,4.4604,4.4606,4.4613,4.4604,4.462,4.4656,4.466,4.4618,4.4617,4.4617,0,4.3954,4.4048,4.4109,4.4138,4.4219,4.4245,4.4279,4.4334,4.4368,4.4418,4.444,4.4494,4.4523,4.4563,4.46,4.4593,4.4665,4.4662,4.4682,4.4681,4.4695,4.4694,4.4735,4.4714,4.4714,4.4714,4.4714,0,4.3994,4.4042,4.411,4.4148,4.4201,4.4247,4.4298,4.4334,4.4381,4.4423,4.4453,4.4491,4.4539,4.4582,4.461,4.4662,4.4675,4.4692,4.4699,4.4689,4.4687,4.4706,4.4704,4.4715,4.4715,4.4715,4.4714,0,4.4003,4.4052,4.412,4.4192,4.421,4.4247,4.4306,4.4341,4.4377,4.4429,4.4444,4.4498,4.455,4.4591,4.4658,4.4678,4.4731,4.4739,4.4714,4.4717,4.4735,4.4732,4.4788,4.4797,4.4771,4.4771,4.4772,0,4.4025,4.4064,4.414,4.4172,4.4207,4.4257,4.4293,4.4338,4.4373,4.4437,4.4463,4.4518,4.4565,4.4646,4.4688,4.4739,4.4748,4.4764,4.4756,4.4744,4.4747,4.4744,4.4746,4.4765,4.4765,4.4765,4.4765,0,4.4058,4.408,4.4132,4.4192,4.4234,4.4282,4.4331,4.4354,4.4407,4.4444,4.45,4.4536,4.4605,4.4658,4.4713,4.4745,4.4762,4.4768,4.4775,4.4764,4.4748,4.4755,4.4715,4.4766,4.4766,4.4766,4.4766,4.4766,4.4074,4.4109,4.4168,4.4224,4.4266,4.431,4.4347,4.4387,4.4435,4.4498,4.452,4.4576,4.4627,4.4704,4.4735,4.4777,4.4778,4.4789,4.4791,4.4793,4.4791,4.4742,4.4787,4.4787,4.4787,4.4787,4.4787,0,4.4107,4.4147,4.4198,4.4267,4.431,4.4326,4.438,4.4414,4.4464,4.4512,4.4558,4.4619,4.4671,4.4718,4.477,4.4794,4.4804,4.4806,4.4805,4.4811,4.4788,4.4776,4.4798,4.4798,4.4798,4.4798,4.4798,4.4798,4.4129,4.4189,4.4218,4.4297,4.4335,4.4393,4.4422,4.4462,4.4501,4.457,4.4614,4.4645,4.4691,4.4747,4.4794,4.4806,4.4823,4.4823,4.4837,4.4814,4.4813,4.4811,4.48,4.4827,4.4827,4.4857,4.4857,4.4858]}]]